Погода в Обходе

Россия / Нижегородская область     57°34′05″N   46°13′21″E
темп.,
°C
ветер,
м/с
пор.,
м/с
влажн.,
%
обл.,
%
осадки,
мм/ч
давл.,
гПа
погр.,
м
13 июня, вс
вс1300:00+14юв389931 0.1 1011244
03:00+12вюв379940 0.1 1011196
06:00+15юв369549 0.0 1011260
09:00+20ююв457128 0.0 1010830
12:00+23ююв466232 0.3 10091474
15:00+23ююв367037 2.4 10091129
18:00+21ю488377 3.8 1008400
21:00+17ююв3119559 6.7 1009242
14 июня, пн
пн1400:00+15ююв3997100 0.1 1009211
03:00+14ю379940 0.1 1010186
06:00+16ююз389599 0.0 1011289
09:00+21юз4671100 0.0 1013762
12:00+25зюз465374 0.1 10131722
15:00+23юз366289 0.1 1013591
18:00+22ссз1179100 0.6 101322
21:00+18з118451 0.6 101411
15 июня, вт
вт1500:00+17зюз118981 0.3 101411
03:00+15з11910 0.3 101511
06:00+19ссв11822 0.0 101594
09:00+24ююв11581 0.0 1014652
12:00+27ююв12464 0.0 10131975
15:00+25юв235698 0.0 1012736
18:00+22юв236889 0.0 101162
21:00+20ююв117598 0.0 101114
16 июня, ср
ср1600:00+18ююз258679 0.0 1010112
03:00+17ю2394100 0.3 101062
06:00+19ю2493100 1.3 1010165
09:00+19ююв129195 1.3 101064
12:00+23з1278100 1.4 100992
15:00+22сз3584100 5.3 1008213
18:00+18ссз4996100 2.1 1010422
21:00+16ссз4109843 2.7 1011428
17 июня, чт
чт1700:00+14ссз4129819 0.0 1012483
03:00+12ссз410975 0.0 1014282
06:00+14с4119312 0.0 1016388
09:00+19ссв59540 0.0 10181289
12:00+22с57383 0.0 10192333
15:00+23с47362 0.0 10192644
18:00+21с375330 0.0 1020601
21:00+15св22730 0.0 102220